Location: Days
(41.3591°N, 106.7339°W)
Time: 17:28:58
(UTC+00:00)

First-Move - Pass Details

Date: 01 July 2022
Orbit: 572 x 658 km, 97.6° (Epoch: 09 August)

Event Time Altitude Azimuth Distance (km) Brightness Sun altitude
Rises 10:49:12 0° 17° (NNE) 2,950 ? -8.1°
Reaches altitude 10° 10:51:28 10° 23° (NNE) 2,048 ? -7.8°
Maximum altitude 10:55:49 50° 99° (E) 827 ? -7.2°
Drops below altitude 10° 11:00:13 10° 176° (S) 2,062 ? -6.5°
Sets 11:02:29 0° 181° (S) 2,972 ? -6.2°
